CAPE
0 0 0 0 0 0 0 0 0 0 0 0 0 0 0 0 0 0 0 0 0 0 0 0 0 0 0 0 0 3 14 7 13 32 15 141 230 448 513 417 365 287 29 24 71
0 0 0 0 0 0 0 0 0 0 0 0 0 0 0 0 0 0 0 0 0 0 0 0 0 0 0 9 0 11 3 1 22 5 105 168 136 217 278 224 127 36 6 0 87
0 0 0 0 0 0 0 0 0 0 0 0 0 0 0 0 0 0 0 0 0 0 0 0 0 0 0 5 2 1 0 8 52 40 124 151 253 357 177 238 25 0 0 0 0
0 0 0 0 0 0 0 0 0 0 0 0 0 0 0 0 0 0 0 0 0 0 0 0 0 0 0 0 0 2 0 5 39 107 253 344 389 420 534 462 61 0 0 0 0
0 0 0 0 0 0 0 0 0 0 0 0 0 0 0 0 0 0 0 0 0 0 0 0 0 0 2 7 1 26 20 48 55 195 318 366 371 425 375 233 16 0 0 0 0
0 0 0 0 0 0 0 0 0 0 0 0 0 0 0 0 0 0 0 0 0 0 0 0 0 0 1 27 15 16 41 0 75 30 353 358 320 321 377 145 12 0 0 0 0
0 0 0 0 0 0 0 0 0 0 0 0 0 0 0 0 0 0 0 0 0 0 0 0 0 8 0 8 24 11 0 3 0 19 235 316 340 408 289 92 10 0 0 0 0
0 0 0 0 0 0 0 0 0 0 0 0 0 0 0 0 0 0 0 0 0 0 0 0 0 0 0 1 14 2 0 1 0 10 10 215 299 559 329 67 6 2 0 0 0
0 0 0 0 0 0 0 0 0 0 0 0 0 0 0 0 0 0 0 0 0 0 0 0 3 13 6 21 0 0 6 1 29 1 1 128 280 560 196 40 2 3 0 0 0
0 0 0 0 0 0 0 0 0 0 0 0 0 0 0 0 0 0 0 0 0 0 0 0 0 0 0 0 2 0 1 4 3 1 1 28 209 418 236 67 63 78 63 41 8
0 0 0 0 0 0 0 0 0 0 0 0 0 0 0 0 0 0 0 0 0 0 0 0 0 0 0 0 13 23 28 26 14 41 63 38 69 173 130 117 116 133 105 88 62
0 0 0 0 0 0 0 0 0 0 0 0 0 0 0 0 0 0 0 0 0 0 0 0 0 0 0 0 2 29 69 36 57 61 80 92 152 136 178 144 198 228 193 166 144
0 0 0 0 0 0 0 0 0 0 0 0 0 0 0 0 0 0 0 0 0 0 0 0 0 0 0 6 4 16 1 30 26 42 85 119 86 77 24 0 39 250 325 216 197
0 0 0 0 0 0 0 0 0 0 0 0 0 0 0 0 0 0 0 0 0 0 0 0 0 0 0 5 14 13 5 0 3 2 14 182 24 32 0 1 51 131 262 295 187
0 0 0 0 0 0 0 0 0 0 0 0 0 0 0 0 0 0 0 0 0 0 0 0 0 0 23 33 13 13 1 0 0 0 0 0 39 0 0 5 1 0 0 1 0
0 0 0 0 0 0 0 0 0 0 0 0 0 0 0 0 0 0 0 0 0 0 0 0 0 0 6 34 19 17 7 0 0 0 0 0 36 0 0 15 0 0 0 0 0
0 0 0 0 0 0 0 0 0 0 0 1 18 4 0 0 0 0 0 0 0 0 0 0 0 1 32 21 25 22 10 2 0 0 0 0 13 0 0 0 0 0 0 0 0
0 0 0 0 0 0 0 0 0 0 0 0 1 0 18 0 0 0 0 0 0 0 0 0 0 16 11 31 68 29 0 0 0 0 0 0 3 0 0 0 0 0 0 0 0
0 0 0 0 0 0 0 0 0 26 40 6 4 31 35 0 0 0 6 55 73 12 1 0 0 13 99 103 78 3 0 0 0 0 0 0 0 0 0 0 0 0 0 0 0
0 0 0 0 0 0 0 0 0 12 34 11 10 17 26 40 43 43 74 76 25 21 4 4 0 45 28 109 47 31 0 0 0 0 0 0 0 0 0 0 0 0 0 0 0
0 0 0 0 0 0 0 0 0 21 7 0 5 0 0 18 24 92 38 30 12 14 0 1 11 6 1 0 0 0 0 0 0 0 0 0 0 0 0 0 0 0 0 0 0
0 0 0 0 0 0 0 0 0 0 9 54 33 1 8 0 36 40 48 39 12 1 0 13 2 1 0 0 0 0 0 0 0 0 0 0 0 0 0 0 0 0 0 0 0
0 0 0 0 0 0 0 0 0 0 0 0 40 15 18 95 46 84 89 40 0 20 6 0 0 0 0 0 0 0 0 0 0 0 0 0 0 0 0 0 0 0 0 0 0
0 0 0 0 0 0 0 0 0 9 38 12 32 64 17 2 29 99 83 53 63 16 0 0 0 0 0 0 0 0 0 0 0 0 0 0 0 0 0 0 0 0 0 0 0
0 0 529 136 0 0 0 0 4 51 44 37 56 62 52 117 168 125 84 29 5 1 0 0 0 0 0 0 0 0 0 0 0 0 0 0 0 0 0 0 0 0 0 0 0
59 870 597 68 0 0 0 0 16 26 85 70 10 50 29 71 72 101 80 5 0 0 0 0 0 16 0 1 21 4 0 0 0 0 0 2 2 23 0 0 0 0 0 0 0
0 662 943 70 0 15 54 76 110 72 25 33 0 9 11 7 0 48 109 62 39 1 3 2 20 0 0 7 25 0 0 0 0 0 0 0 1 0 0 0 0 0 0 0 0
CIN
-0 -0 -0 -0 -0 -0 -0 -0 -0 -0 -0 -0 -0 -0 -0 -0 -0 -0 -0 -0 -0 -0 -0 -0 -0 -0 -0 -0 -0 -54 -35 -45 -30 -30 -47 -81 -55 -102 -135 -104 -113 -119 -183 -168 -131
-0 -0 -0 -0 -0 -0 -0 -0 -0 -0 -0 -0 -0 -0 -0 -0 -0 -0 -0 -0 -0 -0 -0 -0 -0 -0 -0 -54 -24 -72 -93 -19 -68 -28 -59 -74 -40 -89 -115 -104 -134 -175 -58 -0 -86
-0 -0 -0 -0 -0 -0 -0 -0 -0 -0 -0 -0 -0 -0 -0 -0 -0 -0 -0 -0 -0 -0 -0 -0 -0 -0 -0 -47 -82 -13 -0 -72 -51 -35 -54 -58 -69 -86 -96 -94 -42 -0 -0 -0 -0
-0 -0 -0 -0 -0 -0 -0 -0 -0 -0 -0 -0 -0 -0 -0 -0 -0 -0 -0 -0 -0 -0 -0 -0 -0 -0 -0 -0 -0 -17 -0 -136 -97 -34 -37 -54 -87 -80 -77 -71 -188 -0 -0 -0 -0
-0 -0 -0 -0 -0 -0 -0 -0 -0 -0 -0 -0 -0 -0 -0 -0 -0 -0 -0 -0 -0 -0 -0 -0 -0 -0 -69 -59 -51 -132 -129 -118 -108 -39 -59 -89 -95 -85 -116 -163 -139 -0 -0 -0 -0
-0 -0 -0 -0 -0 -0 -0 -0 -0 -0 -0 -0 -0 -0 -0 -0 -0 -0 -0 -0 -0 -0 -0 -0 -0 -0 -40 -111 -65 -104 -123 -0 -76 -115 -105 -55 -123 -94 -117 -164 -139 -0 -0 -0 -0
-0 -0 -0 -0 -0 -0 -0 -0 -0 -0 -0 -0 -0 -0 -0 -0 -0 -0 -0 -0 -0 -0 -0 -0 -0 -104 -0 -142 -201 -182 -20 -93 -7 -94 -112 -133 -120 -120 -190 -185 -190 -0 -0 -0 -0
-0 -0 -0 -0 -0 -0 -0 -0 -0 -0 -0 -0 -0 -0 -0 -0 -0 -0 -0 -0 -0 -0 -0 -0 -0 -0 -2 -68 -289 -198 -37 -29 -0 -157 -31 -118 -80 -134 -166 -199 -208 -189 -0 -0 -0
-0 -0 -0 -0 -0 -0 -0 -0 -0 -0 -0 -0 -0 -0 -0 -0 -0 -0 -0 -0 -0 -0 -0 -0 -101 -127 -222 -178 -45 -0 -132 -24 -138 -91 -95 -98 -92 -129 -162 -189 -95 -114 -0 -0 -0
-0 -0 -0 -0 -0 -0 -0 -0 -0 -0 -0 -0 -0 -0 -0 -0 -0 -0 -0 -0 -0 -0 -0 -0 -0 -4 -0 -98 -23 -0 -26 -40 -47 -55 -44 -120 -114 -129 -123 -97 -120 -181 -206 -279 -361
-0 -0 -0 -0 -0 -0 -0 -0 -0 -0 -0 -0 -0 -0 -0 -0 -0 -0 -0 -0 -0 -0 -0 -0 -0 -0 -0 -0 -88 -55 -65 -39 -64 -125 -85 -94 -125 -92 -152 -167 -99 -112 -128 -163 -192
-0 -0 -0 -0 -0 -0 -0 -0 -0 -0 -0 -0 -0 -0 -0 -0 -0 -0 -0 -0 -0 -0 -0 -0 -0 -0 -0 -0 -43 -38 -12 -35 -72 -77 -121 -137 -118 -117 -107 -67 -65 -67 -58 -69 -87
-0 -0 -0 -0 -0 -0 -0 -0 -0 -0 -0 -0 -0 -0 -0 -0 -0 -0 -0 -0 -0 -0 -0 -0 -0 -0 -1 -49 -35 -24 -5 -41 -40 -120 -146 -131 -125 -160 -165 -0 -125 -73 -42 -40 -52
-0 -0 -0 -0 -0 -0 -0 -0 -0 -0 -0 -0 -0 -0 -0 -0 -0 -0 -0 -0 -0 -0 -0 -0 -0 -0 -0 -24 -35 -15 -57 -0 -22 -8 -41 -123 -54 -143 -45 -118 -115 -79 -26 -24 -58
-0 -0 -0 -0 -0 -0 -0 -0 -0 -0 -0 -0 -0 -0 -0 -0 -0 -0 -0 -0 -0 -0 -0 -0 -0 -0 -34 -40 -36 -25 -70 -0 -0 -0 -0 -0 -92 -0 -0 -83 -30 -0 -0 -67 -0
-0 -0 -0 -0 -0 -0 -0 -0 -0 -0 -0 -0 -0 -0 -0 -0 -0 -0 -0 -0 -0 -0 -0 -0 -0 -0 -29 -41 -50 -67 -79 -0 -0 -0 -0 -0 -63 -0 -0 -152 -0 -0 -0 -0 -0
-0 -0 -0 -0 -0 -0 -0 -0 -0 -0 -0 -11 -36 -41 -0 -0 -0 -0 -0 -0 -0 -0 -0 -0 -0 -10 -27 -37 -37 -43 -55 -26 -0 -0 -0 -0 -62 -0 -0 -0 -0 -0 -0 -0 -0
-0 -0 -0 -0 -0 -0 -0 -0 -0 -0 -0 -0 -8 -0 -42 -0 -0 -0 -0 -0 -0 -0 -0 -0 -0 -35 -36 -30 -24 -31 -0 -0 -0 -0 -0 -0 -41 -0 -0 -0 -0 -0 -0 -0 -0
-0 -0 -0 -0 -0 -0 -0 -0 -0 -111 -89 -87 -75 -63 -74 -0 -0 -0 -7 -38 -85 -125 -8 -0 -0 -64 -37 -32 -33 -2 -0 -0 -0 -0 -0 -0 -0 -0 -0 -0 -0 -0 -0 -0 -0
-0 -0 -0 -0 -0 -0 -0 -0 -0 -103 -93 -73 -74 -108 -65 -119 -72 -56 -65 -100 -76 -93 -113 -27 -0 -35 -60 -36 -30 -28 -0 -0 -0 -0 -0 -0 -0 -0 -0 -0 -0 -0 -0 -0 -0
-0 -0 -0 -0 -0 -0 -0 -0 -0 -99 -101 -0 -80 -19 -31 -149 -133 -86 -79 -111 -95 -103 -0 -9 -105 -52 -4 -0 -0 -0 -0 -0 -0 -0 -0 -0 -0 -0 -0 -0 -0 -0 -0 -0 -0
-0 -0 -0 -0 -0 -0 -0 -0 -0 -2 -120 -80 -140 -57 -172 -0 -139 -80 -59 -81 -138 -39 -0 -96 -143 -26 -0 -0 -0 -0 -0 -0 -0 -0 -0 -0 -0 -0 -0 -0 -0 -0 -0 -0 -0
-0 -0 -0 -0 -0 -0 -0 -0 -0 -0 -0 -3 -81 -112 -180 -151 -167 -114 -153 -201 -20 -179 -143 -8 -35 -0 -0 -0 -0 -0 -0 -0 -0 -0 -0 -0 -0 -0 -0 -0 -0 -0 -0 -0 -0
-0 -0 -0 -0 -0 -0 -0 -0 -0 -55 -59 -51 -78 -161 -160 -142 -148 -60 -43 -80 -107 -109 -0 -0 -0 -0 -0 -0 -0 -0 -0 -0 -0 -0 -0 -0 -0 -0 -0 -0 -0 -0 -0 -0 -0
-0 -0 -49 -38 -0 -0 -0 -0 -11 -32 -84 -79 -37 -68 -69 -31 -46 -51 -67 -95 -139 -44 -0 -24 -0 -0 -0 -0 -0 -1 -0 -0 -0 -0 -0 -0 -0 -0 -0 -0 -0 -0 -0 -0 -0
-12 -56 -84 -133 -0 -0 -0 -2 -94 -115 -84 -63 -105 -81 -161 -15 -30 -57 -62 -91 -0 -0 -0 -0 -0 -120 -0 -37 -33 -88 -0 -0 -0 -0 -0 -61 -43 -126 -0 -0 -0 -0 -0 -0 -0
-0 -146 -90 -189 -0 -143 -216 -164 -139 -122 -61 -120 -0 -45 -92 -46 -15 -70 -73 -95 -59 -24 -65 -8 -45 -18 -0 -110 -40 -8 -0 -0 -0 -0 -0 -0 -27 -0 -0 -0 -0 -0 -0 -0 -0
Wind_Speed
23 24 23 22 22 21 21 21 20 20 20 19 18 11 16 16 18 20 25 21 18 24 17 21 21 19 16 14 13 15 9 12 14 16 17 19 18 18 20 18 17 17 14 13 16
20 23 24 24 23 22 21 21 20 20 19 19 17 15 14 15 16 23 23 24 23 24 22 21 19 17 14 12 16 15 8 16 14 13 17 16 15 17 17 17 19 18 18 15 15
22 23 22 24 23 22 21 21 20 20 19 18 16 15 14 13 10 19 24 24 25 24 18 19 16 15 16 16 15 12 18 16 13 17 18 16 16 16 16 19 14 15 15 14 13
25 24 24 23 22 22 21 20 20 19 17 16 15 15 14 9 5 15 21 27 23 22 18 15 13 12 17 15 17 19 14 12 12 16 16 15 16 18 17 15 15 16 16 15 13
24 23 24 23 22 21 21 20 20 19 18 17 16 15 8 11 18 16 18 20 12 15 17 15 14 17 12 18 13 11 13 18 10 15 14 16 18 19 18 17 17 16 15 14 11
22 22 22 22 22 20 20 19 20 19 19 18 18 13 9 14 17 18 19 16 16 17 15 14 12 15 17 18 14 15 16 12 16 18 12 13 14 17 14 15 15 15 13 11 10
21 19 20 21 20 20 20 19 20 20 20 19 16 10 13 22 15 11 17 20 20 17 15 15 16 15 16 15 16 13 13 10 16 6 10 12 14 14 13 12 12 11 12 11 9
22 20 19 19 20 20 20 20 20 19 20 18 8 10 19 17 8 14 20 23 23 23 20 13 14 17 18 17 16 17 19 17 10 15 10 9 7 7 9 12 11 10 11 10 11
23 22 20 20 19 20 20 20 19 18 17 9 10 14 23 14 14 25 21 22 18 22 22 15 13 16 16 18 19 20 19 16 18 15 13 12 17 5 8 9 11 10 8 9 9
24 23 22 22 20 20 20 20 17 17 14 13 24 19 26 26 22 20 28 27 22 19 20 18 20 21 20 19 21 18 22 21 20 21 9 11 10 7 7 5 9 9 8 7 9
24 22 21 21 21 20 18 16 16 16 11 10 17 14 17 29 18 25 27 26 24 20 22 22 22 23 20 15 17 14 15 13 17 15 17 6 9 5 4 4 4 6 7 7 11
23 22 22 20 20 19 18 10 13 17 19 15 16 20 34 24 26 28 20 21 21 24 21 24 28 29 33 29 21 12 15 14 24 19 13 16 9 8 5 5 11 9 4 2 13
25 21 21 19 19 18 18 20 12 23 21 18 13 25 27 15 28 29 26 23 26 27 26 25 30 31 26 17 19 17 16 21 21 23 18 14 15 11 9 8 12 9 4 3 4
25 24 20 19 16 14 20 18 21 13 18 14 7 23 15 13 28 30 30 21 21 28 28 29 27 30 30 12 17 19 22 27 31 31 30 9 20 13 12 13 15 11 5 4 15
26 23 20 17 17 10 17 21 18 13 14 13 18 6 15 21 29 29 30 21 31 30 23 30 30 32 18 13 16 25 23 30 30 29 30 21 20 16 10 13 13 13 13 12 14
25 23 21 10 10 16 19 20 13 11 13 15 16 23 28 24 25 29 21 25 29 34 32 33 30 26 21 21 25 27 28 30 30 27 27 20 17 15 11 9 9 12 14 12 14
23 22 10 18 9 16 20 14 10 9 16 16 17 17 22 27 28 31 31 23 8 24 27 32 30 27 21 27 31 30 28 31 29 28 27 18 21 19 8 7 7 10 11 13 15
23 20 4 15 17 20 17 11 10 12 15 23 23 23 22 27 30 25 30 28 23 32 32 26 26 22 23 25 28 29 20 26 26 27 30 22 21 21 10 6 8 11 10 11 12
24 14 8 19 13 9 14 9 10 13 9 23 25 17 22 22 26 25 22 20 18 20 19 21 26 31 29 22 23 23 25 17 22 23 24 21 20 17 11 6 10 8 8 11 14
21 17 9 5 9 10 12 7 10 11 19 22 22 17 19 20 18 18 17 16 18 18 20 23 31 26 26 25 24 19 21 21 23 25 28 22 20 20 7 5 8 7 10 13 16
19 16 11 13 5 11 7 6 8 9 17 19 14 17 21 21 9 15 12 21 20 22 24 23 22 26 28 27 25 24 22 21 20 21 25 23 21 15 4 5 5 7 11 12 14
16 15 11 14 9 6 8 6 7 16 12 10 17 20 5 3 7 6 3 4 20 20 26 17 21 28 27 24 19 19 18 18 19 21 21 21 22 18 8 8 8 8 11 14 16
15 13 12 7 10 7 6 7 13 0 9 7 11 10 13 17 16 13 5 23 20 18 16 19 22 27 27 21 20 21 18 18 16 18 22 22 22 12 9 8 8 11 13 14 16
13 14 14 5 12 9 5 6 5 11 17 7 9 12 10 22 17 21 19 20 16 15 17 18 17 19 20 21 24 22 23 15 16 20 20 20 17 6 5 6 8 10 13 15 16
12 13 17 18 17 3 5 20 17 18 18 18 12 10 7 12 14 17 19 19 19 17 14 15 20 21 22 23 24 18 20 16 17 18 20 18 13 5 5 8 10 11 12 14 17
13 16 18 19 23 19 17 17 16 15 21 18 20 21 19 14 17 14 13 16 14 11 13 14 20 22 24 23 26 18 21 20 20 28 23 15 16 12 12 12 12 10 12 15 18
18 18 15 21 21 19 20 15 17 18 20 19 15 22 25 19 20 17 14 15 14 9 9 15 19 22 22 26 26 20 24 21 18 22 18 15 16 12 14 14 13 13 15 16 19
Wind_Direction
304 305 306 304 305 311 313 319 322 337 338 325 325 82 237 234 219 204 187 199 206 151 184 127 154 161 150 110 45 324 354 267 76 88 77 94 69 48 33 55 27 12 40 67 108
298 301 306 309 309 314 313 318 323 334 322 320 331 329 264 242 225 200 198 195 184 139 136 126 159 139 238 301 27 3 264 163 86 100 100 96 70 65 49 40 16 29 40 64 94
301 302 297 303 305 312 317 323 332 332 325 306 286 255 266 247 260 216 200 188 168 143 196 146 65 115 39 20 330 45 248 334 188 113 106 98 70 52 47 20 52 59 50 60 82
309 306 303 296 298 305 305 310 315 302 276 270 243 251 253 273 316 238 215 182 191 174 201 208 354 349 343 26 71 75 104 79 203 91 86 61 52 36 27 41 77 62 62 62 75
306 299 303 298 294 294 297 298 294 286 279 274 230 259 296 267 224 239 214 213 249 230 214 258 35 29 35 41 89 77 43 350 119 44 47 51 27 22 36 64 69 60 62 63 62
300 296 295 296 290 279 274 274 281 279 275 254 235 285 286 257 237 222 215 230 232 224 242 306 7 78 57 17 47 81 64 72 12 15 73 45 49 29 47 71 63 68 65 60 57
293 286 285 285 275 271 271 266 269 265 257 253 258 310 273 214 254 251 229 224 226 248 264 289 96 39 25 36 52 5 32 65 17 118 55 47 12 15 78 80 63 52 46 53 52
293 286 280 275 271 268 262 263 265 262 262 270 344 306 248 257 320 257 230 225 229 231 237 332 40 22 11 43 11 342 21 36 23 1 34 42 26 44 80 78 70 51 34 55 46
297 291 282 277 268 266 257 252 255 282 291 4 306 278 246 286 260 221 239 232 256 231 238 214 238 326 360 359 352 324 358 23 288 19 9 359 353 59 106 81 70 77 61 64 48
298 291 287 283 272 269 258 247 296 296 340 255 231 264 239 235 247 255 215 214 247 277 277 268 270 304 316 341 345 352 339 342 337 345 16 7 12 69 70 71 67 88 43 75 64
295 286 282 278 276 278 278 282 319 329 23 113 162 273 270 214 258 236 223 230 249 277 269 275 292 311 231 216 340 360 358 7 1 357 350 358 0 45 71 92 66 42 29 16 14
291 285 282 268 264 258 250 51 129 348 261 198 181 180 232 256 250 233 253 256 270 267 283 282 274 280 277 260 321 350 354 3 346 3 6 2 15 31 42 54 9 355 19 50 343
296 282 277 258 254 224 168 186 207 316 313 232 135 178 230 269 240 231 232 258 256 253 267 286 275 298 306 335 320 347 8 357 3 12 10 19 358 357 4 356 348 358 320 357 349
299 292 275 263 300 290 205 247 269 38 317 310 341 210 276 278 247 217 218 254 264 250 253 270 310 315 316 338 319 334 342 339 329 335 334 337 332 343 345 346 351 5 66 31 339
299 291 278 293 260 345 263 272 298 21 313 348 179 92 149 173 235 237 197 260 229 235 299 267 283 306 348 0 358 328 335 333 334 333 333 345 337 348 350 345 354 13 13 15 12
294 281 270 10 1 177 259 267 352 347 326 285 274 191 212 255 227 206 269 254 238 248 271 267 290 313 315 318 326 335 330 329 332 338 336 341 348 347 348 346 4 14 13 21 15
282 265 251 269 337 279 277 302 354 57 296 296 288 275 268 235 230 225 234 270 253 285 287 278 293 304 311 307 319 327 329 328 334 336 340 349 343 347 359 33 29 24 19 13 16
278 246 5 153 273 277 292 7 13 346 331 288 309 276 274 245 240 257 243 264 285 267 282 299 301 318 329 325 324 320 340 336 334 337 339 348 346 354 23 52 41 12 23 18 18
281 5 26 258 137 358 339 7 82 10 49 329 306 335 299 282 262 268 279 292 301 315 302 307 300 312 318 332 330 330 331 347 338 341 341 349 353 2 21 16 5 17 22 8 2
314 339 105 39 94 346 352 18 24 25 340 335 315 297 307 275 306 286 291 294 291 310 308 308 291 323 325 331 327 329 337 332 337 335 334 341 342 347 358 11 21 32 17 6 5
328 337 24 103 28 330 22 37 27 42 358 359 331 309 293 291 83 310 325 291 295 299 312 322 326 322 326 330 326 326 327 336 341 341 336 340 342 355 17 18 25 25 17 8 5
331 25 345 102 71 37 140 35 39 358 39 47 343 309 190 319 12 103 107 12 313 311 303 341 319 322 329 333 342 343 342 345 342 341 341 342 340 359 36 43 40 24 9 358 355
339 18 325 82 67 101 73 7 301 329 19 40 30 25 326 282 308 318 74 312 312 320 340 331 327 328 329 335 343 341 346 344 352 350 339 339 342 20 32 20 15 0 358 360 359
352 30 23 46 346 19 60 132 25 10 352 32 22 1 20 273 304 308 321 317 336 338 333 340 346 343 337 337 333 336 340 352 349 341 342 340 347 13 20 4 354 356 357 357 359
31 13 344 354 348 205 341 316 342 326 321 328 352 330 100 358 345 323 312 319 327 346 355 354 341 341 336 330 332 344 344 354 344 342 338 339 345 1 360 351 347 353 1 4 5
353 356 342 4 353 11 340 338 343 324 305 311 310 302 278 347 347 346 347 343 352 357 353 358 343 344 339 338 335 342 342 348 352 349 348 1 347 358 3 11 9 4 3 360 0
324 327 1 349 356 358 349 349 337 331 335 327 298 285 260 338 331 348 9 13 8 14 10 360 351 346 348 338 335 344 344 356 2 1 8 347 346 359 4 5 0 354 356 358 357